GW4243 Weather Reports


Display with metric or nautical units.
time (UTC)temp
F
wind
direction
speed
MPH
gust
MPH
rain 1hr
in
rain 24hr
in
rain mn
in
humidity
%
barometer
mb
20260502181543 70 0 0.0 0.0 0.00 0.00 0.00 58 1014.0
20260502181028 70 0 0.0 0.0 0.00 0.00 0.00 58 1013.9
20260502180526 71 0 0.0 0.0 0.00 0.00 0.00 57 1014.0
20260502164026 73 0 0.0 0.0 0.00 0.00 0.00 46 1014.0
20260502163526 73 0 0.0 0.0 0.00 0.00 0.00 46 1014.0
20260502163038 73 0 0.0 0.0 0.00 0.00 0.00 48 1014.0
20260502162529 73 0 0.0 0.0 0.00 0.00 0.00 51 1014.1
20260502162026 73 0 0.0 0.0 0.00 0.00 0.00 51 1014.2
20260502161537 73 0 0.0 0.0 0.00 0.00 0.00 49 1014.3
20260502161026 74 0 0.0 0.0 0.00 0.00 0.00 46 1014.4
20260502160526 75 0 0.0 0.0 0.00 0.00 0.00 43 1014.5
20260502152026 79 0 0.0 0.0 0.00 0.00 0.00 36 1014.9
20260502151548 78 0 0.0 0.0 0.00 0.00 0.00 39 1014.9
20260502151026 79 0 0.0 0.0 0.00 0.00 0.00 36 1015.0
20260502150526 79 0 0.0 0.0 0.00 0.00 0.00 39 1015.1
20260502130527 78 0 0.0 0.0 0.00 0.00 0.00 39 1016.9
20260502123525 76 0 0.0 0.0 0.00 0.00 0.00 41 1017.4
20260502123037 76 0 0.0 0.0 0.00 0.00 0.00 43 1017.4
20260502122526 77 0 0.0 0.0 0.00 0.00 0.00 41 1017.5
20260502122029 77 0 0.0 0.0 0.00 0.00 0.00 43 1017.5
20260502121538 76 0 0.0 0.0 0.00 0.00 0.00 44 1017.5
20260502121027 76 0 0.0 0.0 0.00 0.00 0.00 43 1017.7
20260502120526 76 0 0.0 0.0 0.00 0.00 0.00 44 1017.7
20260502115526 76 0 0.0 0.0 0.00 0.00 0.00 43 1017.9
20260502115026 76 0 0.0 0.0 0.00 0.00 0.00 46 1018.0
20260502114538 75 0 0.0 0.0 0.00 0.00 0.00 47 1018.0
20260502114027 75 0 0.0 0.0 0.00 0.00 0.00 46 1018.1
20260502113528 74 0 0.0 0.0 0.00 0.00 0.00 45 1018.1
20260502113043 75 0 0.0 0.0 0.00 0.00 0.00 44 1018.2
20260502112526 74 0 0.0 0.0 0.00 0.00 0.00 46 1018.3
20260502112031 74 0 0.0 0.0 0.00 0.00 0.00 45 1018.3
20260502111538 74 0 0.0 0.0 0.00 0.00 0.00 48 1018.5
20260502111026 74 0 0.0 0.0 0.00 0.00 0.00 49 1018.6
20260502110526 73 0 0.0 0.0 0.00 0.00 0.00 48 1018.7
20260502110043 73 0 0.0 0.0 0.00 0.00 0.00 47 1018.6
20260502105527 73 0 0.0 0.0 0.00 0.00 0.00 48 1018.6
20260502105027 73 0 0.0 0.0 0.00 0.00 0.00 47 1018.8
20260502104542 73 0 0.0 0.0 0.00 0.00 0.00 48 1018.8
20260502104027 72 0 0.0 0.0 0.00 0.00 0.00 48 1018.9
20260502103528 72 0 0.0 0.0 0.00 0.00 0.00 47 1019.1
20260502103037 71 0 0.0 0.0 0.00 0.00 0.00 47 1019.1
20260502102526 72 0 0.0 0.0 0.00 0.00 0.00 47 1019.2
20260502102026 72 0 0.0 0.0 0.00 0.00 0.00 46 1019.3
20260502101541 71 0 0.0 0.0 0.00 0.00 0.00 47 1019.4
20260502101026 71 0 0.0 0.0 0.00 0.00 0.00 46 1019.5
20260502100527 71 0 0.0 0.0 0.00 0.00 0.00 49 1019.5
20260502091027 66 0 0.0 0.0 0.00 0.00 0.00 49 1020.5
20260502090526 65 0 0.0 0.0 0.00 0.00 0.00 51 1020.5
20260502071536 53 0 0.0 0.0 0.00 0.00 0.00 71 1021.2
20260502071028 53 0 0.0 0.0 0.00 0.00 0.00 71 1021.2
20260502070526 52 0 0.0 0.0 0.00 0.00 0.00 73 1021.2
20260502070100 52 0 0.0 0.0 0.00 0.00 0.00 73 1021.3
20260502065526 51 0 0.0 0.0 0.00 0.00 0.00 73 1021.3
20260502065028 51 0 0.0 0.0 0.00 0.00 0.00 75 1021.4
20260502064545 50 0 0.0 0.0 0.00 0.00 0.00 76 1021.4
20260502064025 49 0 0.0 0.0 0.00 0.00 0.00 77 1021.4
20260502063526 48 0 0.0 0.0 0.00 0.00 0.00 79 1021.4
20260502063038 47 0 0.0 0.0 0.00 0.00 0.00 79 1021.4
20260502062531 47 0 0.0 0.0 0.00 0.00 0.00 80 1021.4
20260502062028 47 0 0.0 0.0 0.00 0.00 0.00 80 1021.4
20260502061538 46 0 0.0 0.0 0.00 0.00 0.00 81 1021.3
20260502061026 46 0 0.0 0.0 0.00 0.00 0.00 81 1021.4
20260502060527 46 0 0.0 0.0 0.00 0.00 0.00 82 1021.4
20260502060043 46 0 0.0 0.0 0.00 0.00 0.00 82 1021.3
20260502055526 46 0 0.0 0.0 0.00 0.00 0.00 82 1021.4
20260502055026 45 0 0.0 0.0 0.00 0.00 0.00 82 1021.4
20260502054550 45 0 0.0 0.0 0.00 0.00 0.00 83 1021.4
20260502054026 45 0 0.0 0.0 0.00 0.00 0.00 83 1021.4
20260502053526 45 0 0.0 0.0 0.00 0.00 0.00 83 1021.4
20260502053043 44 0 0.0 0.0 0.00 0.00 0.00 83 1021.5
20260502052528 44 0 0.0 0.0 0.00 0.00 0.00 83 1021.4
20260502052028 44 0 0.0 0.0 0.00 0.00 0.00 82 1021.4
20260502051546 44 0 0.0 0.0 0.00 0.00 0.00 82 1021.4
20260502051025 44 0 0.0 0.0 0.00 0.00 0.00 82 1021.4
20260502050525 44 0 0.0 0.0 0.00 0.00 0.00 82 1021.4
20260502050038 44 0 0.0 0.0 0.00 0.00 0.00 82 1021.3
20260502045528 44 0 0.0 0.0 0.00 0.00 0.00 82 1021.3
20260502045028 44 0 0.0 0.0 0.00 0.00 0.00 82 1021.1
20260502044538 44 0 0.0 0.0 0.00 0.00 0.00 82 1021.2
20260502044028 44 0 0.0 0.0 0.00 0.00 0.00 83 1021.2
20260502043529 44 0 0.0 0.0 0.00 0.00 0.00 83 1021.2
20260502043050 44 0 0.0 0.0 0.00 0.00 0.00 83 1021.3
20260502042526 44 0 0.0 0.0 0.00 0.00 0.00 83 1021.2
20260502042026 44 0 0.0 0.0 0.00 0.00 0.00 82 1021.2
20260502041600 44 0 0.0 0.0 0.00 0.00 0.00 82 1021.2
20260502041026 44 0 0.0 0.0 0.00 0.00 0.00 82 1021.2
20260502040526 44 0 0.0 0.0 0.00 0.00 0.00 82 1021.3
20260502040049 44 0 0.0 0.0 0.00 0.00 0.00 82 1021.1
20260502035526 44 0 0.0 0.0 0.00 0.00 0.00 82 1021.2
20260502035028 44 0 0.0 0.0 0.00 0.00 0.00 82 1021.1
20260502034544 44 0 0.0 0.0 0.00 0.00 0.00 82 1021.3
20260502034029 44 0 0.0 0.0 0.00 0.00 0.00 82 1021.2
20260502033529 44 0 0.0 0.0 0.00 0.00 0.00 82 1021.3
20260502033037 44 0 0.0 0.0 0.00 0.00 0.00 82 1021.3
20260502032525 44 0 0.0 0.0 0.00 0.00 0.00 82 1021.2
20260502032025 44 0 0.0 0.0 0.00 0.00 0.00 82 1021.2
20260502031538 44 0 0.0 0.0 0.00 0.00 0.00 82 1021.1
20260502031026 44 0 0.0 0.0 0.00 0.00 0.00 82 1021.0
20260502030526 44 0 0.0 0.0 0.00 0.00 0.00 82 1021.0
20260502030050 44 0 0.0 0.0 0.00 0.00 0.00 82 1021.0
20260502025528 44 0 0.0 0.0 0.00 0.00 0.00 82 1021.0
20260502025026 44 0 0.0 0.0 0.00 0.00 0.00 82 1021.0
20260502024550 44 0 0.0 0.0 0.00 0.00 0.00 82 1021.1
20260502024026 44 0 0.0 0.0 0.00 0.00 0.00 81 1021.1
20260502023527 44 0 0.0 0.0 0.00 0.00 0.00 81 1021.0
20260502023055 44 0 0.0 0.0 0.00 0.00 0.00 81 1021.0
20260502022525 44 0 0.0 0.0 0.00 0.00 0.00 81 1021.1
20260502022025 44 0 0.0 0.0 0.00 0.00 0.00 81 1021.1
20260502021538 44 0 0.0 0.0 0.00 0.00 0.00 81 1021.0
20260502021028 44 0 0.0 0.0 0.00 0.00 0.00 82 1021.0
20260502020526 45 0 0.0 0.0 0.00 0.00 0.00 82 1021.0
20260502020038 45 0 0.0 0.0 0.00 0.00 0.00 82 1021.0
20260502015526 45 0 0.0 0.0 0.00 0.00 0.00 82 1021.0
20260502015027 45 0 0.0 0.0 0.00 0.00 0.00 81 1021.1
20260502014541 45 0 0.0 0.0 0.00 0.00 0.00 81 1021.1
20260502014031 45 0 0.0 0.0 0.00 0.00 0.00 81 1021.1
20260502013526 45 0 0.0 0.0 0.00 0.00 0.00 81 1021.1
20260502013044 45 0 0.0 0.0 0.00 0.00 0.00 81 1021.1
20260502012526 45 0 0.0 0.0 0.00 0.00 0.00 81 1021.1
20260502012025 46 0 0.0 0.0 0.00 0.00 0.00 80 1021.1
20260502011552 46 0 0.0 0.0 0.00 0.00 0.00 80 1021.1
20260502011025 46 0 0.0 0.0 0.00 0.00 0.00 80 1021.0
20260502010526 46 0 0.0 0.0 0.00 0.00 0.00 80 1021.1
20260502010041 46 0 0.0 0.0 0.00 0.00 0.00 79 1021.0
20260502005526 46 0 0.0 0.0 0.00 0.00 0.00 78 1021.1
20260502005030 46 0 0.0 0.0 0.00 0.00 0.00 78 1021.1
20260502004540 46 0 0.0 0.0 0.00 0.00 0.00 78 1021.1
20260502004028 47 0 0.0 0.0 0.00 0.00 0.00 78 1021.1
20260502003527 47 0 0.0 0.0 0.00 0.00 0.00 78 1021.1
20260502003039 47 0 0.0 0.0 0.00 0.00 0.00 78 1021.1
20260502002527 47 0 0.0 0.0 0.00 0.00 0.00 77 1021.1
20260502002026 47 0 0.0 0.0 0.00 0.00 0.00 76 1021.1
20260502001542 47 0 0.0 0.0 0.00 0.00 0.00 76 1021.1
20260502001032 48 0 0.0 0.0 0.00 0.00 0.00 75 1021.2
20260502000525 48 0 0.0 0.0 0.00 0.00 0.00 75 1021.3
20260502000053 48 0 0.0 0.0 0.00 0.00 0.00 74 1021.4
20260501235525 48 0 0.0 0.0 0.00 0.00 0.00 73 1021.5
20260501235026 48 0 0.0 0.0 0.00 0.00 0.00 72 1021.3
20260501234539 48 0 0.0 0.0 0.00 0.00 0.00 72 1021.4
20260501234026 48 0 0.0 0.0 0.00 0.00 0.00 73 1021.3
20260501233525 48 0 0.0 0.0 0.00 0.00 0.00 72 1021.3
20260501233053 48 0 0.0 0.0 0.00 0.00 0.00 71 1021.4
20260501232525 49 0 0.0 0.0 0.00 0.00 0.00 70 1021.3
20260501232025 49 0 0.0 0.0 0.00 0.00 0.00 70 1021.3
20260501231601 49 0 0.0 0.0 0.00 0.00 0.00 70 1021.3
20260501231025 49 0 0.0 0.0 0.00 0.00 0.00 70 1021.2
20260501230525 49 0 0.0 0.0 0.00 0.00 0.00 70 1021.2
20260501230114 50 0 0.0 0.0 0.00 0.00 0.00 69 1021.2
20260501225526 50 0 0.0 0.0 0.00 0.00 0.00 69 1021.2
20260501225026 50 0 0.0 0.0 0.00 0.00 0.00 69 1021.2
20260501224556 50 0 0.0 0.0 0.00 0.00 0.00 68 1021.1
20260501224026 50 0 0.0 0.0 0.00 0.00 0.00 68 1021.1
20260501223526 51 0 0.0 0.0 0.00 0.00 0.00 68 1021.2
20260501223046 51 0 0.0 0.0 0.00 0.00 0.00 68 1021.2
20260501222528 51 0 0.0 0.0 0.00 0.00 0.00 67 1021.2
20260501222026 51 0 0.0 0.0 0.00 0.00 0.00 67 1021.2
20260501221539 51 0 0.0 0.0 0.00 0.00 0.00 67 1021.1
20260501221029 51 0 0.0 0.0 0.00 0.00 0.00 67 1021.2
20260501220526 51 0 0.0 0.0 0.00 0.00 0.00 67 1021.1
20260501220041 52 0 0.0 0.0 0.00 0.00 0.00 66 1021.1
20260501215528 52 0 0.0 0.0 0.00 0.00 0.00 65 1021.0
20260501215028 52 0 0.0 0.0 0.00 0.00 0.00 65 1021.0
20260501214537 52 0 0.0 0.0 0.00 0.00 0.00 66 1021.0
20260501214026 53 0 0.0 0.0 0.00 0.00 0.00 67 1021.0
20260501213526 53 0 0.0 0.0 0.00 0.00 0.00 66 1021.0
20260501213036 53 0 0.0 0.0 0.00 0.00 0.00 65 1021.0
20260501212526 53 0 0.0 0.0 0.00 0.00 0.00 64 1021.0
20260501212027 54 0 0.0 0.0 0.00 0.00 0.00 64 1021.0
20260501211538 54 0 0.0 0.0 0.00 0.00 0.00 63 1021.0
20260501211026 54 0 0.0 0.0 0.00 0.00 0.00 62 1021.0
20260501210529 55 0 0.0 0.0 0.00 0.00 0.00 61 1020.9
20260501210039 55 0 0.0 0.0 0.00 0.00 0.00 61 1020.8
20260501205527 55 0 0.0 0.0 0.00 0.00 0.00 61 1020.8
20260501205028 55 0 0.0 0.0 0.00 0.00 0.00 59 1020.8
20260501204542 55 0 0.0 0.0 0.00 0.00 0.00 59 1020.7
20260501204026 56 0 0.0 0.0 0.00 0.00 0.00 59 1020.7
20260501203526 56 0 0.0 0.0 0.00 0.00 0.00 58 1020.6
20260501203044 56 0 0.0 0.0 0.00 0.00 0.00 58 1020.7
20260501202526 57 0 0.0 0.0 0.00 0.00 0.00 58 1020.7
20260501202029 57 0 0.0 0.0 0.00 0.00 0.00 57 1020.7
20260501201542 57 0 0.0 0.0 0.00 0.00 0.00 57 1020.8
20260501201027 57 0 0.0 0.0 0.00 0.00 0.00 56 1020.7
20260501200527 58 0 0.0 0.0 0.00 0.00 0.00 58 1020.7
20260501200039 58 0 0.0 0.0 0.00 0.00 0.00 57 1020.7
20260501195526 58 0 0.0 0.0 0.00 0.00 0.00 57 1020.6
20260501195026 59 0 0.0 0.0 0.00 0.00 0.00 55 1020.4
20260501194538 59 0 0.0 2.0 0.00 0.00 0.00 55 1020.5
20260501194026 60 0 0.0 2.0 0.00 0.00 0.00 54 1020.4
20260501193526 60 0 0.0 2.0 0.00 0.00 0.00 54 1020.4
20260501193039 61 0 0.0 2.0 0.00 0.00 0.00 53 1020.2
20260501192525 61 0 0.0 2.0 0.00 0.00 0.00 51 1020.2
20260501192029 62 0 0.0 0.0 0.00 0.00 0.00 50 1020.2
20260501191536 63 0 0.0 3.0 0.00 0.00 0.00 51 1020.3
20260501191030 64 0 1.0 3.0 0.00 0.00 0.00 50 1020.2
20260501190526 64 0 0.0 1.0 0.00 0.00 0.00 49 1020.3
20260501190038 65 0 0.0 1.0 0.00 0.00 0.00 49 1020.2
20260501185525 65 0 0.0 1.0 0.00 0.00 0.00 46 1020.0
20260501185025 65 0 0.0 1.0 0.00 0.00 0.00 44 1020.1
20260501184537 66 0 0.0 1.0 0.00 0.00 0.00 44 1020.0
20260501184026 66 0 0.0 1.0 0.00 0.00 0.00 43 1020.0
20260501183527 67 0 0.0 0.0 0.00 0.00 0.00 43 1020.0
20260501183038 67 0 0.0 0.0 0.00 0.00 0.00 42 1020.0
20260501182526 67 0 0.0 0.0 0.00 0.00 0.00 40 1019.9
20260501182028 67 0 0.0 0.0 0.00 0.00 0.00 40 1019.8